TimeMST,TemperatureF,Dew PointF,Humidity,Sea Level PressureIn,VisibilityMPH,Wind Direction,Wind SpeedMPH,Gust SpeedMPH,PrecipitationIn,Events,Conditions,WindDirDegrees,DateUTC
12:16 AM,30.2,28.4,93,30.10,3.0,South,13.8,21.9,N/A,Snow,Light Snow,190,2012-11-17 07:16:00
12:36 AM,30.2,28.4,93,30.10,0.2,SSW,15.0,19.6,N/A,Snow,Snow,200,2012-11-17 07:36:00
12:56 AM,32.0,28.4,87,30.08,0.2,SSE,15.0,25.3,N/A,Snow,Snow,160,2012-11-17 07:56:00
1:16 AM,30.2,28.4,93,30.06,0.2,SSE,23.0,27.6,N/A,Snow,Light Snow,150,2012-11-17 08:16:00
1:36 AM,30.2,28.4,93,30.08,0.2,South,13.8,23.0,N/A,Snow,Snow,170,2012-11-17 08:36:00
1:56 AM,32.0,28.4,87,30.09,0.2,South,13.8,24.2,N/A,Snow,Heavy Snow,180,2012-11-17 08:56:00
2:16 AM,32.0,28.4,87,30.08,0.2,SSE,15.0,20.7,N/A,Snow,Heavy Snow,160,2012-11-17 09:16:00
2:36 AM,-9999,-9999,N/A,30.09,0.2,SSE,17.3,23.0,N/A,,Unknown,160,2012-11-17 09:36:00
2:56 AM,-9999,-9999,N/A,30.09,0.2,South,15.0,20.7,N/A,,Unknown,170,2012-11-17 09:56:00
3:16 AM,-9999,-9999,N/A,30.09,0.2,SSW,13.8,19.6,N/A,,Unknown,210,2012-11-17 10:16:00
3:36 AM,-9999,-9999,N/A,30.09,0.2,SW,17.3,24.2,N/A,,Unknown,220,2012-11-17 10:36:00
3:56 AM,-9999,-9999,N/A,30.09,0.2,SW,12.7,20.7,N/A,,Unknown,220,2012-11-17 10:56:00
4:16 AM,-9999,-9999,N/A,30.09,0.2,SSW,12.7,20.7,N/A,,Unknown,200,2012-11-17 11:16:00
4:36 AM,-9999,-9999,N/A,30.10,0.2,SSW,13.8,20.7,N/A,,Unknown,200,2012-11-17 11:36:00
4:56 AM,-9999,-9999,N/A,30.10,0.2,SSW,11.5,-,N/A,,Unknown,200,2012-11-17 11:56:00
5:16 AM,-9999,-9999,N/A,30.10,0.2,SSW,13.8,18.4,N/A,,Unknown,200,2012-11-17 12:16:00
5:36 AM,-9999,-9999,N/A,30.10,-9999.0,South,12.7,18.4,N/A,,Overcast,190,2012-11-17 12:36:00
5:56 AM,-9999,-9999,N/A,30.10,7.0,SSE,12.7,19.6,N/A,,Overcast,160,2012-11-17 12:56:00
6:16 AM,-9999,-9999,N/A,30.09,3.0,SSE,13.8,21.9,N/A,,Overcast,160,2012-11-17 13:16:00
6:36 AM,-9999,-9999,N/A,30.10,0.2,South,12.7,18.4,N/A,Fog,Fog,170,2012-11-17 13:36:00
6:56 AM,-9999,-9999,N/A,30.10,0.2,SSE,10.4,18.4,N/A,,Unknown,150,2012-11-17 13:56:00
7:16 AM,-9999,-9999,N/A,30.11,0.8,South,11.5,19.6,N/A,,Overcast,180,2012-11-17 14:16:00
7:36 AM,-9999,-9999,N/A,30.12,4.0,South,12.7,20.7,N/A,,Haze,190,2012-11-17 14:36:00
7:56 AM,-9999,-9999,N/A,30.12,10.0,South,9.2,18.4,N/A,,Overcast,180,2012-11-17 14:56:00
8:16 AM,-9999,-9999,N/A,30.12,10.0,South,10.4,17.3,N/A,,Overcast,180,2012-11-17 15:16:00
8:36 AM,-9999,-9999,N/A,30.12,10.0,South,11.5,19.6,N/A,,Overcast,170,2012-11-17 15:36:00
8:56 AM,-9999,-9999,N/A,30.12,10.0,South,11.5,17.3,N/A,,Overcast,180,2012-11-17 15:56:00
9:16 AM,-9999,-9999,N/A,30.12,10.0,South,13.8,21.9,N/A,,Overcast,190,2012-11-17 16:16:00
9:36 AM,-9999,-9999,N/A,30.12,10.0,SSW,13.8,19.6,N/A,,Mostly Cloudy,210,2012-11-17 16:36:00
9:56 AM,-9999,-9999,N/A,30.12,10.0,South,13.8,18.4,N/A,,Overcast,190,2012-11-17 16:56:00
10:16 AM,33.8,30.2,87,30.13,10.0,SSW,13.8,20.7,N/A,,Overcast,200,2012-11-17 17:16:00
10:36 AM,33.8,28.4,81,30.12,10.0,South,11.5,18.4,N/A,,Overcast,190,2012-11-17 17:36:00
10:56 AM,33.8,28.4,81,30.12,10.0,South,12.7,17.3,N/A,,Overcast,190,2012-11-17 17:56:00
11:16 AM,33.8,26.6,75,30.11,10.0,South,12.7,-,N/A,,Overcast,190,2012-11-17 18:16:00
11:36 AM,33.8,26.6,75,30.10,10.0,SSW,12.7,-,N/A,,Overcast,200,2012-11-17 18:36:00
11:56 AM,33.8,28.4,81,30.09,10.0,SW,9.2,-,N/A,,Overcast,220,2012-11-17 18:56:00
12:16 PM,33.8,28.4,81,30.09,10.0,SW,9.2,-,N/A,,Overcast,220,2012-11-17 19:16:00
12:36 PM,33.8,28.4,81,30.08,10.0,SW,9.2,-,N/A,,Overcast,230,2012-11-17 19:36:00
12:56 PM,33.8,28.4,81,30.07,7.0,WSW,9.2,-,N/A,,Overcast,240,2012-11-17 19:56:00
1:16 PM,33.8,28.4,81,30.07,7.0,WSW,11.5,20.7,N/A,Snow,Light Snow,240,2012-11-17 20:16:00
1:36 PM,33.8,28.4,81,30.07,5.0,WSW,11.5,-,N/A,Snow,Light Snow,250,2012-11-17 20:36:00
1:56 PM,33.8,30.2,87,30.07,10.0,WSW,11.5,19.6,N/A,,Overcast,250,2012-11-17 20:56:00
2:16 PM,33.8,30.2,87,30.06,10.0,West,11.5,21.9,N/A,,Overcast,270,2012-11-17 21:16:00
2:36 PM,33.8,30.2,87,30.07,10.0,West,11.5,17.3,N/A,,Overcast,260,2012-11-17 21:36:00
2:56 PM,33.8,30.2,87,30.07,10.0,West,10.4,16.1,N/A,Snow,Light Snow,260,2012-11-17 21:56:00
3:16 PM,33.8,30.2,87,30.07,5.0,West,12.7,16.1,N/A,Snow,Light Snow,260,2012-11-17 22:16:00
3:36 PM,33.8,30.2,87,30.07,10.0,West,10.4,16.1,N/A,,Overcast,270,2012-11-17 22:36:00
3:56 PM,32.0,30.2,93,30.07,10.0,West,5.8,-,N/A,,Overcast,270,2012-11-17 22:56:00
4:16 PM,33.8,30.2,87,30.07,10.0,WSW,4.6,-,N/A,,Overcast,250,2012-11-17 23:16:00
4:36 PM,32.0,30.2,93,30.06,10.0,WSW,5.8,-,N/A,,Overcast,240,2012-11-17 23:36:00
5:16 PM,33.8,26.6,75,30.06,10.0,SSW,10.4,-,N/A,,Overcast,200,2012-11-18 00:16:00
5:36 PM,33.8,26.6,75,30.05,10.0,South,8.1,-,N/A,,Overcast,170,2012-11-18 00:36:00
5:56 PM,33.8,26.6,75,30.05,10.0,South,11.5,-,N/A,,Mostly Cloudy,170,2012-11-18 00:56:00
6:16 PM,33.8,26.6,75,30.05,10.0,South,9.2,-,N/A,,Scattered Clouds,180,2012-11-18 01:16:00
6:36 PM,33.8,26.6,75,30.05,10.0,SSW,10.4,-,N/A,,Scattered Clouds,200,2012-11-18 01:36:00
6:56 PM,33.8,26.6,75,30.05,10.0,SSW,10.4,-,N/A,,Mostly Cloudy,210,2012-11-18 01:56:00
7:16 PM,33.8,26.6,75,30.05,10.0,SW,9.2,-,N/A,,Mostly Cloudy,220,2012-11-18 02:16:00
7:36 PM,33.8,26.6,75,30.05,10.0,SSW,9.2,-,N/A,,Mostly Cloudy,210,2012-11-18 02:36:00
7:56 PM,33.8,24.8,70,30.05,10.0,SSW,9.2,-,N/A,,Mostly Cloudy,210,2012-11-18 02:56:00
8:16 PM,33.8,24.8,70,30.05,10.0,SSW,10.4,-,N/A,,Scattered Clouds,210,2012-11-18 03:16:00
8:36 PM,33.8,26.6,75,30.05,10.0,SSW,8.1,-,N/A,,Scattered Clouds,200,2012-11-18 03:36:00
8:56 PM,33.8,26.6,75,30.04,10.0,South,12.7,-,N/A,,Scattered Clouds,170,2012-11-18 03:56:00
9:16 PM,33.8,26.6,75,30.05,10.0,South,10.4,-,N/A,,Mostly Cloudy,190,2012-11-18 04:16:00
9:36 PM,33.8,26.6,75,30.04,10.0,SW,10.4,-,N/A,,Overcast,220,2012-11-18 04:36:00
9:56 PM,33.8,26.6,75,30.04,10.0,South,11.5,-,N/A,,Overcast,180,2012-11-18 04:56:00
10:16 PM,32.0,26.6,80,30.03,10.0,South,12.7,18.4,N/A,,Overcast,190,2012-11-18 05:16:00
10:36 PM,33.8,23.0,65,30.03,10.0,South,16.1,25.3,N/A,,Overcast,170,2012-11-18 05:36:00
10:56 PM,33.8,21.2,60,30.03,10.0,South,19.6,29.9,N/A,,Overcast,190,2012-11-18 05:56:00
11:16 PM,33.8,21.2,60,30.03,10.0,South,20.7,26.5,N/A,,Overcast,190,2012-11-18 06:16:00
11:36 PM,33.8,21.2,60,30.03,10.0,South,17.3,24.2,N/A,,Overcast,180,2012-11-18 06:36:00
11:56 PM,33.8,19.4,56,30.03,10.0,South,17.3,24.2,N/A,,Overcast,180,2012-11-18 06:56:00